Погода в Тумнине

Погода в Тумнине : погода сейчас, прогноз погоды и архив. Всё, что Вы хотите узнать о погоде в Тумнине!

Поиск расширенной информации на нашем сайте:

Другие новости

Новости СМИ2

Главная страница сайта

Новости сайта

03.07.2017

Напоминаем, что на нашем специализированном сайте Метеоцентр.Азия вы можете получить высокодетализированные автоматические прогнозы погоды по пунктам России, СНГ и мира в авиационном формате (включающие направление и скорость ветра, видимость, явления погоды, количество и форму облачности, нижнюю и верхнюю границу облачности).


Погода в Тумнине - сегодня

Время (UTC), дата Ветер
(°,м/с) 
Видим.   Явления Облачность Т
(°С)
Тd
(°С)
f(%) Тe
(°С)
Pmin
(гПа)
dP
(гПа)
Po
(мм)
O2
(г/м3)
Тmin Tmax R s Состояние
почвы
06 09.12.17 290 (З) 20000 м    9/1 1000 м средняя, верхняя 
[Sc|Ac trans|Ci fib]
-16.8 -27.9 38 -21  1010.2  -0.1  752  325           
09 09.12.17 350 (С) 20000 м    9/0 средняя, верхняя 
[Ac trans|Ci fib]
-18.4 -27.3 45 -19  1010.8  0.5  752  327    -16.2       
12 09.12.17 250 (З) 20000 м    4/0 средняя, верхняя 
[Ac trans|Ci fib]
-18.3 -26.5 49 -19  1011.3  0.5  753  327           
15 09.12.17 300 (СЗ) 20000 м    8/0 средняя, верхняя 
[Ac trans|Ci fib]
-17.9 -26.7 46 -22  1011.5  0.2  753  326           
18 09.12.17 320 (СЗ) 20000 м    6/0 средняя, верхняя 
[Ac trans|Cs]
-16.3 -25.9 43 -21  1012  0.5  753  324           
21 09.12.17 030 (СВ) 3{11}  10 км  слаб. снег  10/0 средняя 
[As op]
-15.4 -21.9 57 -19  1012.7  0.7  754  323  -21.2    0.0  12  равномерный
сухой снег
100% 
00 10.12.17 050 (СВ) 20000 м  {снег}  6/0 средняя 
[Ac trans]
-16.4 -22.2 61 -19  1014.9  2.2  755  325           
03 10.12.17 080 (В) 20000 м    6/0 средняя 
[Ac trans]
-11.6 -21.6 43 -14  1015.4  0.6  756  320           
06 10.12.17 110 (В) 20000 м    8/0 средняя 
[Ac trans]
-9.8 -20.4 42 -10  1016.3  0.9  757  318           
09 10.12.17 тихо ()   20000 м    10/0 
-13.8 -19.1 64 -14  1017.6  1.2  757  323    -9.3       
12 10.12.17 тихо ()   20000 м    6/0 средняя 
[Ac trans]
-17.4 -20.4 77 -17  1018.9  1.1  758  328           
15 10.12.17 тихо ()   20000 м    4/0 средняя 
[Ac trans]
-21.4 -23.7 82 -21  1019.9  0.9  759  334           
18 10.12.17 тихо ()   20000 м    ясно 
-24.5 -27.2 78 -25  1019.3  -0.7  758  338           
21 10.12.17 тихо ()   20000 м    ясно 
-24.3 -27.2 77 -24  1019  -0.7  758  337  -25.9      12  равномерный
сухой снег
100% 
00 11.12.17 110 (В) 20000 м    10/4 1000 м средняя, верхняя 
[Sc diur, vesp|Ac trans|Ci fib]
-20.4 -23.7 75 -21  1017.3  -1.6  757  331           
03 11.12.17 100 (В) 20000 м    10/0 средняя, верхняя 
[Sc diur, vesp|Ac trans|Ci fib]
-16.8 -21.6 66 -17  1013.5  -3.7  754  325           
06 11.12.17 030 (СВ) 20000 м    10/4 1000 м средняя 
[Sc|Ac As]
-9.3 -15.8 59 -12  1011.7  -1.6  753  315           
09 11.12.17 040 (СВ) 10 км  слаб. снег  10/0 средняя 
[As op]
-8.7 -11.8 78 -12  1010.4  -1.3  752  314    -8.6  0.2     
12 11.12.17 050 (СВ) 4000 м  слаб. снег  10/0 средняя 
[As op]
-7.8 -11.2 77 -11  1007.9  -2.3  750  312           
15 11.12.17 050 (СВ) 3{12}  4000 м  слаб. снег  10/0 средняя 
[As op]
-7.4 -10.7 77 -10  1005.9  -2  749  311           
18 11.12.17 050 (СВ) 4000 м  слаб. снег  10/0 средняя 
[As op]
-7.8 -10.1 84 -9  1004.8  -2  748  311           
21 11.12.17 050 (СВ) 4000 м  слаб. снег  10/0 средняя 
[As op]
-7.9 -10.6 81 -9  1003.8  -1.1  747  311  -8.7    19  равномерный
сухой снег
100% 
00 12.12.17 100 (В) 2000 м  снег  10/0 средняя 
[As op]
-8.2 -10.5 83 -10  1003.1  -0.6  747  311           
03 12.12.17 330 (СЗ) 4000 м  слаб. снег  10/0 средняя 
[As op]
-5.8 -11.6 64 -7  1000.1  -2.9  745  308           
06 12.12.17 310 (СЗ) 4000 м  {снег}  10/0 средняя 
[As op]
-7 -10.2 78 -10  1000.3  -0.1  745  309           
Время (UTC), дата Ветер
(°,м/с) 
Видим.   Явления Облачность Т
(°С)
Тd
(°С)
f(%) Тe
(°С)
Pmin
(гПа)
dP
(гПа)
Po
(мм)
O2
(г/м3)
Тmin Tmax R s Состояние
почвы

Для получения пояснительной информации подведите курсор к названию столбца.

ПОГОДА в Тумнине - архив

Всё, что Вы хотите узнать о погоде в Тумнине - удобно и подробно!

Выберите нужную дату (начиная с 1 января 2015* года) и нажмите кнопку "Найти".
Будут отображены архивные сводки погоды по пункту Тумнин, начиная с указанной даты.


Отображать данные в формате CSV (для использования в таблицах Excel)


Внимание! Наш архив погоды предназначен исключительно для личного некоммерческого использования в познавательных целях. Если Вам необходимы официальные справки о состоянии погоды (для производственных, юридических, коммерческих и т.п. целей), обращайтесь в органы Росгидромета.

*Примечание: данная дата относится к архиву по метеостанциям СССР (Россия, СНГ, Балтия).
Архив по метеостанциям Зарубежной Европы и Азии (кроме Китая) хранится 10 дней, по другим регионам земного шара (Китай, Африка, Америка, Австралия, Океания) - 1 день.

Тумнин - район местоположения метеостанции


Название, широта, долгота, высота метеостанции:
Тумнин 49.7°ш. 140.1°д. 58 м над ур. моря [Российская Федерация]

Дополнительная информация

В oтличие oт бoльшинства пoгoдных сайтoв мы публикуем пoдрoбную метеoинфoрмацию в детальнoм прoфессиoнальнoм фoрмате.

Характеристики температуры и влажнoсти вoздуха измеряются на высoте 2 м в тени вдали oт зданий и деревьев.
Скoрoсть ветра измеряется на высoте 10 м (на урoвне рoста челoвека скoрoсть ветра ниже в 1.5-2 раза). Если метеoстанция нахoдится в гoрoде или в лесу, тo скoрoсть ветра занижена на 2-4 м/с пo сравнению с oткрытым местoм. Скoрoсть ветра над акватoриями крупных рек и oзёр, а также на вершинах хoлмoв на 2-5 м/с выше, чем в oбычных услoвиях.
Атмoсфернoе давление в разных тoчках местнoсти мoжет значительнo oтличаться oт давления на метеoстанции, в зависимoсти oт услoвий рельефа (при пoдъёме на 10 м давление пoнижается примернo на 1 мм рт.ст.).